Amateur Radio Satellites - All Passes

Search period start: 19 May 2013 10:44
Search period end: 20 May 2013 10:44
Location: Irma, 52.9170°N, 111.2330°W

Satellite Date Start Highest point End Downlink Frequencies (MHz)
Time Altitude Azimuth
AO-7 19 May 10:54:02 10:57:59 14° 340° (NNW) 11:01:57 29.400 - 29.500 MHz
Saudisat 1A 19 May 10:55:47 10:59:24 22° 346° (NNW) 11:03:02 436.775 MHz
ISS 19 May 10:56:49 10:59:25 21° 213° (SSW) 11:02:01 145.800 FM
PCSat 19 May 11:00:37 11:05:46 42° 322° (NW) 11:10:57 145.825 MHz
HO-68 19 May 11:18:14 11:25:26 77° 107° (ESE) 11:32:36 435.675 MHz FM
OPAL 19 May 11:21:10 11:25:39 31° 97° (E) 11:30:04 ?
MaSat-1 19 May 11:27:46 11:31:42 35° 43° (NE) 11:34:48 437.345 MHz
Sapphire 19 May 11:34:04 11:38:54 32° 329° (NNW) 11:43:46 437.095 MHz 1200 baud AX-25 AFSK
SO-50 19 May 11:35:40 11:40:28 82° 315° (NW) 11:45:11 436.795 FM
Oscar 11 19 May 11:59:34 12:03:53 59° 290° (WNW) 12:08:10 145.825 FM, Beacon 2401.500 USB
JAS-2 19 May 12:01:30 12:08:55 72° 291° (WNW) 12:15:27 435.800 - 435.900 CW/SSB, 435.910 FM
Uribyol 2 19 May 12:04:16 12:05:46 11° 44° (NE) 12:07:16 436.500 FM
Oscar 19 19 May 12:13:43 12:16:20 14° 48° (NE) 12:18:57 437.125 CW, 437.150 USB
JAS-1B 19 May 12:18:00 12:21:32 15° 322° (NW) 12:24:50 435.800 - 435.900 CW/SSB
Saudisat 1A 19 May 12:37:05 12:40:35 21° 10° (N) 12:44:03 436.775 MHz
AO-7 19 May 12:44:44 12:47:22 12° 8° (N) 12:50:01 29.400 - 29.500 MHz
PCSat 19 May 12:46:36 12:50:36 20° 347° (NNW) 12:54:37 145.825 MHz
Oscar 16 19 May 12:50:10 12:54:27 27° 58° (ENE) 12:58:45 437.025 USB, Beacon 2401.1428
AO-27 19 May 12:51:00 12:54:55 22° 55° (NE) 12:58:50 436.795 MHz FM
ITAMSAT 1 19 May 12:58:22 13:02:27 24° 56° (NE) 13:06:33 435.822 SSB
OPAL 19 May 12:59:54 13:04:47 48° 297° (WNW) 13:09:34 ?
HO-68 19 May 13:06:29 13:12:37 32° 309° (NW) 13:18:45 435.675 MHz FM
MaSat-1 19 May 13:10:24 13:13:35 25° 252° (WSW) 13:16:13 437.345 MHz
SO-50 19 May 13:17:40 13:21:44 27° 337° (NNW) 13:25:45 436.795 FM
UOSAT-12 19 May 13:19:37 13:23:46 37° 122° (ESE) 13:27:58 437.025 FM, 437.400 FM
Sapphire 19 May 13:20:13 13:24:00 19° 354° (N) 13:27:47 437.095 MHz 1200 baud AX-25 AFSK
Oscar 11 19 May 13:38:06 13:39:15 11° 310° (NW) 13:40:24 145.825 FM, Beacon 2401.500 USB
Uribyol 2 19 May 13:39:10 13:44:06 47° 65° (ENE) 13:49:05 436.500 FM
JAS-2 19 May 13:47:20 13:52:43 22° 315° (NW) 13:57:44 435.800 - 435.900 CW/SSB, 435.910 FM
Oscar 19 19 May 13:49:37 13:54:44 61° 69° (ENE) 13:59:53 437.125 CW, 437.150 USB
Uosat F 19 May 14:13:22 14:16:53 20° 54° (NE) 14:20:25 435.120 FM
TMSAT-1 19 May 14:16:28 14:19:07 14° 48° (NE) 14:21:46 436.925 FM
Saudisat 1A 19 May 14:17:00 14:21:23 41° 33° (NNE) 14:25:42 436.775 MHz
AO-Echo 19 May 14:22:33 14:27:00 37° 64° (ENE) 14:31:22 ?
Oscar 16 19 May 14:28:20 14:33:30 62° 258° (WSW) 14:38:41 437.025 USB, Beacon 2401.1428
AO-27 19 May 14:28:45 14:33:56 78° 255° (WSW) 14:39:11 436.795 MHz FM
AO-7 19 May 14:31:18 14:37:10 22° 35° (NE) 14:43:02 29.400 - 29.500 MHz
PCSat 19 May 14:32:01 14:36:00 20° 13° (NNE) 14:39:59 145.825 MHz
Gurwin Techsat 1B 19 May 14:34:06 14:38:15 24° 56° (NE) 14:42:25 435.225 FM
ITAMSAT 1 19 May 14:36:23 14:41:32 70° 256° (WSW) 14:46:45 435.822 SSB
OPAL 19 May 14:40:47 14:42:35 12° 318° (NW) 14:44:22 ?
HO-68 19 May 14:56:01 14:58:15 12° 333° (NNW) 15:00:28 435.675 MHz FM
UOSAT-12 19 May 14:59:28 15:03:53 49° 323° (NW) 15:08:21 437.025 FM, 437.400 FM
SO-50 19 May 15:00:20 15:03:45 20° 2° (N) 15:07:08 436.795 FM
Sapphire 19 May 15:05:02 15:09:21 23° 20° (NNE) 15:13:39 437.095 MHz 1200 baud AX-25 AFSK
Uribyol 2 19 May 15:19:09 15:23:47 33° 265° (W) 15:28:28 436.500 FM
Oscar 19 19 May 15:30:15 15:34:30 25° 269° (W) 15:38:48 437.125 CW, 437.150 USB
Uosat F 19 May 15:50:07 15:55:08 86° 254° (WSW) 16:00:11 435.120 FM
TMSAT-1 19 May 15:52:53 15:58:04 60° 69° (ENE) 16:03:19 436.925 FM
Saudisat 1A 19 May 15:56:48 16:01:13 47° 235° (SW) 16:05:32 436.775 MHz
AO-Echo 19 May 16:01:22 16:05:51 36° 264° (W) 16:10:16 ?
AO-27 19 May 16:11:44 16:14:22 14° 275° (W) 16:17:02 436.795 MHz FM
Gurwin Techsat 1B 19 May 16:12:29 16:17:47 74° 256° (WSW) 16:23:08 435.225 FM
Oscar 16 19 May 16:12:42 16:13:58 11° 278° (W) 16:15:14 437.025 USB, Beacon 2401.1428
PCSat 19 May 16:15:42 16:20:52 41° 37° (NE) 16:26:00 145.825 MHz
ITAMSAT 1 19 May 16:19:58 16:22:03 12° 277° (W) 16:24:09 435.822 SSB
AO-7 19 May 16:20:22 16:28:25 59° 59° (ENE) 16:36:32 29.400 - 29.500 MHz
UOSAT-12 19 May 16:41:29 16:45:02 22° 346° (NNW) 16:48:37 437.025 FM, 437.400 FM
SO-50 19 May 16:41:35 16:45:43 30° 26° (NNE) 16:49:45 436.795 FM
Sapphire 19 May 16:48:31 16:53:54 58° 44° (NE) 16:59:16 437.095 MHz 1200 baud AX-25 AFSK
RS-15 19 May 17:19:44 17:30:37 44° 112° (ESE) 17:41:05 29.354 - 29.394 USB, Beacon 29.352 USB
Uosat F 19 May 17:31:56 17:34:44 15° 274° (W) 17:37:33 435.120 FM
TMSAT-1 19 May 17:34:01 17:38:25 26° 269° (W) 17:42:50 436.925 FM
JAS-1B 19 May 17:38:13 17:43:50 20° 44° (NE) 17:48:55 435.800 - 435.900 CW/SSB
Gurwin Techsat 1B 19 May 17:56:14 17:58:44 13° 276° (W) 18:01:16 435.225 FM
PCSat 19 May 17:59:12 18:04:30 54° 239° (WSW) 18:09:46 145.825 MHz
Hamsat 19 May 18:01:18 18:03:56 16° 57° (ENE) 18:06:35 145.90 MHz
AO-7 19 May 18:13:41 18:21:31 45° 262° (W) 18:29:26 29.400 - 29.500 MHz
SO-50 19 May 18:22:12 18:26:49 80° 228° (SW) 18:31:20 436.795 FM
UOSAT-12 19 May 18:23:12 18:26:41 21° 11° (N) 18:30:10 437.025 FM, 437.400 FM
HO-68 19 May 18:25:20 18:27:16 11° 26° (NNE) 18:29:11 435.675 MHz FM
STRAND 1 19 May 18:29:23 18:31:59 14° 85° (E) 18:34:36 ?
Sapphire 19 May 18:32:17 18:37:09 34° 245° (WSW) 18:41:59 437.095 MHz 1200 baud AX-25 AFSK
JAS-2 19 May 18:55:36 18:58:13 12° 31° (NNE) 19:00:49 435.800 - 435.900 CW/SSB, 435.910 FM
SO-67 19 May 19:13:01 19:15:51 23° 64° (ENE) 19:18:43 435.3500 MHz FM
JAS-1B 19 May 19:24:22 19:33:12 59° 65° (ENE) 19:40:42 435.800 - 435.900 CW/SSB
RS-15 19 May 19:30:25 19:42:23 79° 318° (NW) 19:53:49 29.354 - 29.394 USB, Beacon 29.352 USB
Hamsat 19 May 19:35:16 19:39:30 80° 256° (WSW) 19:43:47 145.90 MHz
PCSat 19 May 19:46:14 19:46:45 10° 259° (W) 19:47:16 145.825 MHz
UOSAT-12 19 May 20:03:32 20:07:56 43° 34° (NE) 20:12:20 437.025 FM, 437.400 FM
SO-50 19 May 20:04:10 20:06:43 15° 248° (WSW) 20:09:15 436.795 FM
HO-68 19 May 20:06:49 20:12:50 31° 51° (NE) 20:18:52 435.675 MHz FM
STRAND 1 19 May 20:06:54 20:12:04 78° 105° (ESE) 20:17:13 ?
JAS-2 19 May 20:34:21 20:41:02 33° 54° (NE) 20:47:41 435.800 - 435.900 CW/SSB, 435.910 FM
SO-67 19 May 20:45:50 20:49:10 37° 263° (W) 20:52:33 435.3500 MHz FM
OPAL 19 May 21:04:44 21:08:43 23° 53° (NE) 21:12:42 ?
Hamsat 19 May 21:15:13 21:16:21 11° 276° (W) 21:17:29 145.90 MHz
JAS-1B 19 May 21:15:19 21:23:58 44° 264° (W) 21:31:27 435.800 - 435.900 CW/SSB
Oscar 11 19 May 21:25:04 21:28:57 34° 65° (ENE) 21:32:52 145.825 FM, Beacon 2401.500 USB
UOSAT-12 19 May 21:43:48 21:48:12 45° 235° (SW) 21:52:35 437.025 FM, 437.400 FM
RS-15 19 May 21:45:21 21:56:34 48° 348° (NNW) 22:07:18 29.354 - 29.394 USB, Beacon 29.352 USB
STRAND 1 19 May 21:46:55 21:50:47 22° 305° (NW) 21:54:38 ?
HO-68 19 May 21:52:48 21:59:57 80° 252° (WSW) 22:07:09 435.675 MHz FM
JAS-2 19 May 22:17:34 22:25:22 83° 255° (WSW) 22:33:16 435.800 - 435.900 CW/SSB, 435.910 FM
OPAL 19 May 22:41:56 22:47:09 78° 252° (WSW) 22:52:21 ?
Oscar 11 19 May 23:01:15 23:05:11 34° 264° (W) 23:09:10 145.825 FM, Beacon 2401.500 USB
KITSAT 1 19 May 23:09:59 23:15:28 20° 102° (ESE) 23:20:58 435.175 FM
HO-68 19 May 23:43:51 23:48:48 20° 274° (W) 23:53:48 435.675 MHz FM
RS-15 20 May 00:00:27 00:11:37 53° 21° (NNE) 00:22:19 29.354 - 29.394 USB, Beacon 29.352 USB
JAS-2 20 May 00:05:31 00:11:27 23° 276° (W) 00:17:29 435.800 - 435.900 CW/SSB, 435.910 FM
AO-40 20 May 00:11:01 05:08:41 29° 167° (SSE) 08:50:56 Beacon 2401.320
OPAL 20 May 00:24:09 00:26:53 14° 272° (W) 00:29:37 ?
KITSAT 1 20 May 01:01:32 01:09:33 72° 125° (SE) 01:17:38 435.175 FM
Uribyol 2 20 May 01:49:07 01:49:27 10° 81° (E) 01:49:47 436.500 FM
Oscar 19 20 May 01:56:41 01:59:18 14° 84° (E) 02:01:55 437.125 CW, 437.150 USB
MaSat-1 20 May 02:06:50 02:11:21 19° 105° (ESE) 02:15:22 437.345 MHz
RS-15 20 May 02:13:43 02:25:01 82° 231° (SW) 02:35:54 29.354 - 29.394 USB, Beacon 29.352 USB
Oscar 16 20 May 02:34:10 02:38:46 31° 94° (E) 02:43:19 437.025 USB, Beacon 2401.1428
AO-27 20 May 02:36:07 02:40:24 25° 92° (E) 02:44:39 436.795 MHz FM
ITAMSAT 1 20 May 02:43:27 02:47:54 28° 93° (E) 02:52:20 435.822 SSB
KITSAT 1 20 May 02:57:44 03:05:30 48° 330° (NNW) 03:13:20 435.175 FM
Uribyol 2 20 May 03:24:54 03:30:06 59° 102° (ESE) 03:35:15 436.500 FM
Oscar 19 20 May 03:34:21 03:39:35 78° 104° (ESE) 03:44:45 437.125 CW, 437.150 USB
MaSat-1 20 May 03:46:11 03:53:04 77° 121° (ESE) 03:58:33 437.345 MHz
Uosat F 20 May 03:52:34 03:56:10 19° 89° (E) 03:59:45 435.120 FM
AO-Echo 20 May 04:01:49 04:06:21 45° 99° (E) 04:10:55 ?
TMSAT-1 20 May 04:03:48 04:06:52 15° 85° (E) 04:09:55 436.925 FM
Oscar 16 20 May 04:13:21 04:18:22 49° 294° (WNW) 04:23:20 437.025 USB, Beacon 2401.1428
AO-27 20 May 04:15:11 04:20:21 62° 291° (WNW) 04:25:30 436.795 MHz FM
AO-7 20 May 04:18:44 04:20:19 11° 76° (ENE) 04:21:53 29.400 - 29.500 MHz
ITAMSAT 1 20 May 04:22:38 04:27:45 56° 293° (WNW) 04:32:51 435.822 SSB
Gurwin Techsat 1B 20 May 04:22:47 04:27:26 30° 93° (E) 04:32:03 435.225 FM
RS-15 20 May 04:27:00 04:35:40 28° 257° (WSW) 04:44:12 29.354 - 29.394 USB, Beacon 29.352 USB
KITSAT 1 20 May 04:55:46 05:02:56 33° 358° (N) 05:10:07 435.175 FM
Uribyol 2 20 May 05:04:54 05:09:19 28° 302° (WNW) 05:13:43 436.500 FM
Oscar 19 20 May 05:14:30 05:18:26 22° 305° (NW) 05:22:20 437.125 CW, 437.150 USB
ISS 20 May 05:18:38 05:21:23 24° 149° (SSE) 05:24:10 145.800 FM
MaSat-1 20 May 05:29:57 05:35:39 32° 319° (NW) 05:40:18 437.345 MHz
Uosat F 20 May 05:30:32 05:35:34 75° 289° (WNW) 05:40:35 435.120 FM
AO-Echo 20 May 05:40:57 05:45:04 30° 298° (WNW) 05:49:11 ?
TMSAT-1 20 May 05:42:18 05:47:40 83° 105° (ESE) 05:52:59 436.925 FM
STRAND 1 20 May 05:50:38 05:55:18 37° 63° (ENE) 05:59:59 ?
Oscar 16 20 May 05:54:52 05:56:37 12° 315° (NW) 05:58:22 437.025 USB, Beacon 2401.1428
AO-27 20 May 05:56:15 05:58:57 14° 312° (NW) 06:01:38 436.795 MHz FM
Gurwin Techsat 1B 20 May 06:02:32 06:07:43 53° 293° (WNW) 06:12:52 435.225 FM
ITAMSAT 1 20 May 06:03:55 06:06:15 13° 313° (NW) 06:08:35 435.822 SSB
AO-7 20 May 06:07:25 06:15:27 48° 100° (E) 06:23:27 29.400 - 29.500 MHz
Saudisat 1A 20 May 06:12:57 06:14:10 11° 108° (ESE) 06:15:23 436.775 MHz
KITSAT 1 20 May 06:52:46 07:00:29 44° 27° (NNE) 07:08:10 435.175 FM
ISS 20 May 06:54:26 06:57:44 62° 169° (SSE) 07:01:04 145.800 FM
Uosat F 20 May 07:10:37 07:13:37 16° 309° (NW) 07:16:37 435.120 FM
MaSat-1 20 May 07:16:32 07:19:16 14° 341° (NNW) 07:21:43 437.345 MHz
Hamsat 20 May 07:17:08 07:19:20 14° 86° (E) 07:21:32 145.90 MHz
TMSAT-1 20 May 07:23:06 07:27:03 22° 306° (NW) 07:30:59 436.925 FM
STRAND 1 20 May 07:29:42 07:34:30 41° 262° (W) 07:39:20 ?
Sapphire 20 May 07:40:01 07:42:15 13° 103° (ESE) 07:44:29 437.095 MHz 1200 baud AX-25 AFSK
Gurwin Techsat 1B 20 May 07:44:23 07:46:37 13° 314° (NW) 07:48:51 435.225 FM
Saudisat 1A 20 May 07:48:27 07:52:58 60° 128° (SE) 07:57:32 436.775 MHz
AO-7 20 May 08:00:22 08:08:27 56° 302° (WNW) 08:16:31 29.400 - 29.500 MHz
SO-67 20 May 08:07:47 08:09:31 13° 88° (E) 08:11:15 435.3500 MHz FM
ISS 20 May 08:31:01 08:34:21 66° 189° (S) 08:37:42 145.800 FM
PCSat 20 May 08:46:54 08:51:55 40° 117° (ESE) 08:56:59 145.825 MHz
KITSAT 1 20 May 08:48:31 08:56:41 83° 232° (SW) 09:04:49 435.175 FM
Hamsat 20 May 08:51:41 08:56:03 87° 286° (WNW) 09:00:25 145.90 MHz
JAS-1B 20 May 08:54:26 09:00:35 43° 96° (E) 09:06:04 435.800 - 435.900 CW/SSB
MaSat-1 20 May 09:02:16 09:03:33 11° 7° (N) 09:04:46 437.345 MHz
HO-68 20 May 09:15:37 09:19:16 14° 82° (E) 09:22:55 435.675 MHz FM
Sapphire 20 May 09:19:19 09:24:39 63° 123° (ESE) 09:30:02 437.095 MHz 1200 baud AX-25 AFSK
JAS-2 20 May 09:23:49 09:27:01 13° 75° (ENE) 09:30:05 435.800 - 435.900 CW/SSB, 435.910 FM
Saudisat 1A 20 May 09:28:41 09:32:57 36° 329° (NNW) 09:37:15 436.775 MHz
SO-67 20 May 09:39:51 09:43:26 66° 287° (WNW) 09:46:59 435.3500 MHz FM
AO-7 20 May 09:53:53 09:59:38 21° 326° (NW) 10:05:23 29.400 - 29.500 MHz
ISS 20 May 10:07:49 10:10:46 28° 208° (SSW) 10:13:43 145.800 FM
SO-50 20 May 10:23:15 10:27:45 42° 124° (ESE) 10:32:12 436.795 FM
Hamsat 20 May 10:29:05 10:31:31 15° 305° (NW) 10:33:58 145.90 MHz
PCSat 20 May 10:30:02 10:35:19 51° 318° (NW) 10:40:38 145.825 MHz

Developed and maintained by Chris Peat, Heavens-Above GmbH. Please read the updated FAQ before sending e-mail. Imprint. DLR
